Showing default

GONETS M 12 (M22), 40553

Orbit data source: Space-Track

GONETS M 12 (M22), 40553 is a payload satellite owned by Gonets (CIS) in LEO that was launched on Tue, 31 Mar 2015 UTC via an ROKOT launch vehicle from the Plesetsk Missile And Space Complex (PKMTR). Payload-class satellites include a variety of spacecraft equipped with specific instruments for various scientific and technological missions. These include communications satellites like Starlink; space stations such as the ISS; scientific satellites like the Hubble; Earth observation satellites from companies like Planet Labs, Umbra, and HawkEye 360; GPS; miniature CubeSats for education and research; and military/defense satellites.

Loading next visibility...
Identifier
40553, 2015-020B
Orbit
LEO
Country
Flag of CISCIS
Related business
Manufacturer
Resehetnev ISS
Mission
Operational Commercial Communications
Bus & Motor
STRELA-3M, Unknown motor
Mass
225 kg wet, 225 kg dry
Launch date (UTC)
2015-03-31 (11 years ago)
Launch vehicle
ROKOT
Launch site
Plesetsk Missile And Space Complex (PKMTR)
Object type
Payload
Rocket body
Debris
Shape & HBR
Cyl + 1 Ant, 3.5 m
Radar Cross Section
1.798 m², Large (>1 m²)

Expand to show TLE details & history
Last TLE update: 8 hours ago

TLE from 8 hours ago
0 GONETS M 12 (M22)
1 40553U 15020B   26036.93285491  .00000152  00000-0  10249-2 0  9999
2 40553  82.4895 113.8786 0013914 271.7457  88.2028 12.42887617492425
Epoch: 2026-02-05T22:23Z
TLE epoch observation values (Epoch: 2026-02-05T22:23:18.664Z)
Latitude
-0.0001°
Longitude
1.97284°
Altitude
1,496.757 km
Speed
7.116 km/s
True Right ascension
07h 35m 30s
True Declination
0° 00' 00"
Sunlit
Object was in full shadow at epoch
Visualization orbit readout
Latitude
Unknown
Longitude
Unknown
Altitude
Unknown
Speed
Unknown
Apparent Right ascension
Unknown
Apparent Declination
Unknown
Sunlit
N/A
Visualization observer readout
Local Sidereal Time
08:55:30
Azimuth
Unknown
Elevation
Unknown
Doppler factor
Unknown
Orbital elements
Apogee altitude
1,502.688 km
Perigee altitude
1,480.787 km
Semi-major axis
7,869.875 km
Eccentricity
0.00139
Inclination
82.4895°
RAAN
113.8786°
Arg. of periapsis
271.7457°
True anomaly
88.36217°
Mean anomaly
88.2028°
Eccentric anomaly
88.28249°
Mean motion
3.10879 °/min
Orbital period
115.8 mins
BSTAR
0.0010249
Loading maneuver chart data...
Computing Atmospheric mass density...
Loading historical data...
Loading historical data...
Loading historical data...
Loading historical data...
Loading historical data...
Loading historical data...
Loading historical data...

Documentation

Showing up to 5 results
|